TimeEST,TemperatureF,Dew PointF,Humidity,Sea Level PressureIn,VisibilityMPH,Wind Direction,Wind SpeedMPH,Gust SpeedMPH,PrecipitationIn,Events,Conditions,WindDirDegrees,DateUTC
12:56 AM,12.9,8.1,81,30.40,10.0,Calm,Calm,-,N/A,,Clear,0,2009-02-07 05:56:00
1:56 AM,12.0,7.0,80,30.41,9.0,Calm,Calm,-,N/A,,Clear,0,2009-02-07 06:56:00
2:56 AM,10.0,5.0,80,30.40,10.0,Calm,Calm,-,N/A,,Clear,0,2009-02-07 07:56:00
3:56 AM,9.0,3.9,80,30.41,10.0,Calm,Calm,-,N/A,,Clear,0,2009-02-07 08:56:00
4:56 AM,8.1,3.0,80,30.42,10.0,Calm,Calm,-,N/A,,Clear,0,2009-02-07 09:56:00
5:56 AM,7.0,3.0,84,30.42,10.0,Calm,Calm,-,N/A,,Clear,0,2009-02-07 10:56:00
6:56 AM,8.1,3.0,80,30.42,10.0,Calm,Calm,-,N/A,,Clear,0,2009-02-07 11:56:00
7:56 AM,12.9,7.0,77,30.41,10.0,Calm,Calm,-,N/A,,Clear,0,2009-02-07 12:56:00
8:56 AM,28.0,19.9,72,30.39,10.0,SSW,5.8,-,N/A,,Clear,200,2009-02-07 13:56:00
9:56 AM,33.1,23.0,66,30.39,10.0,SSW,6.9,-,N/A,,Clear,200,2009-02-07 14:56:00
10:56 AM,36.0,24.1,62,30.36,10.0,SSW,9.2,-,N/A,,Clear,200,2009-02-07 15:56:00
11:56 AM,36.0,28.0,73,30.32,10.0,SSW,10.4,-,N/A,,Clear,210,2009-02-07 16:56:00
12:56 PM,37.9,30.0,73,30.29,10.0,SSW,11.5,-,N/A,,Clear,210,2009-02-07 17:56:00
1:56 PM,37.9,28.0,68,30.27,10.0,SW,13.8,-,N/A,,Clear,220,2009-02-07 18:56:00
2:56 PM,37.9,30.0,73,30.23,10.0,SSW,16.1,-,N/A,,Clear,210,2009-02-07 19:56:00
3:56 PM,37.0,30.9,79,30.20,10.0,SSW,12.7,-,N/A,,Clear,210,2009-02-07 20:56:00
4:56 PM,37.9,32.0,79,30.17,10.0,SW,13.8,-,N/A,,Mostly Cloudy,220,2009-02-07 21:56:00
5:56 PM,39.0,33.1,79,30.17,10.0,SW,12.7,-,N/A,,Overcast,230,2009-02-07 22:56:00
6:56 PM,39.0,33.1,79,30.13,10.0,SW,13.8,-,N/A,,Mostly Cloudy,220,2009-02-07 23:56:00
7:56 PM,39.0,35.1,86,30.09,10.0,SSW,16.1,-,N/A,,Overcast,210,2009-02-08 00:56:00
8:56 PM,39.0,35.1,86,30.07,10.0,SSW,12.7,-,N/A,,Overcast,210,2009-02-08 01:56:00
9:56 PM,39.0,35.1,86,30.02,8.0,SSW,11.5,-,N/A,,Overcast,210,2009-02-08 02:56:00
10:56 PM,37.9,35.1,89,29.99,7.0,SSW,9.2,-,N/A,,Overcast,200,2009-02-08 03:56:00
11:56 PM,39.9,36.0,86,29.96,7.0,SW,11.5,-,N/A,,Overcast,220,2009-02-08 04:56:00